KC8YYF Weather Reports


time (UTC)temp
C
wind
direction
speed
KPH
gust
KPH
rain 1hr
cm
rain 24hr
cm
rain mn
cm
humidity
%
barometer
mb
20260506232430 12 140 0.0 3.2 0.00 0.23 0.23 63 1014.1
20260506231926 12 32 4.8 4.8 0.00 0.23 0.23 65 1014.0
20260506231424 12 90 1.6 6.4 0.00 0.23 0.23 57 1013.7
20260506230921 12 144 0.0 3.2 0.00 0.23 0.23 64 1013.9
20260506230417 12 112 0.0 3.2 0.00 0.23 0.23 59 1013.8
20260506225914 12 135 0.0 3.2 0.00 0.23 0.23 59 1013.8
20260506225411 12 131 4.8 6.4 0.00 0.23 0.23 59 1013.9
20260506224908 12 126 4.8 4.8 0.00 0.23 0.23 61 1013.7
20260506224406 12 93 0.0 4.8 0.00 0.23 0.23 58 1013.6
20260506223901 12 61 8.0 8.0 0.00 0.23 0.23 57 1013.4
20260506223357 12 90 3.2 3.2 0.00 0.23 0.23 58 1013.8
20260506222854 12 90 3.2 9.7 0.00 0.23 0.23 57 1013.5
20260506222350 12 117 0.0 6.4 0.00 0.23 0.23 56 1013.6
20260506221848 12 83 0.0 8.0 0.00 0.23 0.23 58 1013.2
20260506221345 12 78 1.6 3.2 0.00 0.23 0.23 59 1013.0
20260506220842 12 100 4.8 8.0 0.00 0.23 0.23 57 1013.1
20260506220338 12 122 4.8 6.4 0.00 0.23 0.23 59 1012.9
20260506215835 12 47 4.8 8.0 0.00 0.23 0.23 57 1012.9
20260506215331 12 90 1.6 4.8 0.00 0.23 0.23 59 1012.9
20260506214827 12 90 0.0 4.8 0.00 0.23 0.23 57 1012.8
20260506214324 12 33 3.2 11.3 0.00 0.23 0.23 57 1013.2
20260506213822 12 57 6.4 6.4 0.00 0.23 0.23 59 1012.9
20260506213319 12 66 4.8 6.4 0.00 0.23 0.23 56 1012.7
20260506212816 12 114 0.0 8.0 0.00 0.23 0.23 57 1012.5
20260506212312 13 97 1.6 3.2 0.00 0.23 0.23 57 1012.7
20260506211807 13 52 4.8 9.7 0.00 0.23 0.23 57 1012.9
20260506211303 13 123 0.0 4.8 0.00 0.23 0.23 59 1012.5
20260506210801 13 130 4.8 9.7 0.00 0.23 0.23 58 1012.6
20260506210257 13 180 0.0 1.6 0.00 0.23 0.23 58 1012.6
20260506205755 13 94 4.8 4.8 0.00 0.23 0.23 60 1012.5
20260506205250 13 144 4.8 6.4 0.00 0.23 0.23 60 1012.2
20260506204747 13 132 3.2 3.2 0.00 0.23 0.23 59 1012.4
20260506204245 13 77 0.0 4.8 0.00 0.23 0.23 60 1012.3
20260506203742 13 120 0.0 4.8 0.00 0.23 0.23 61 1012.2
20260506203239 13 32 0.0 6.4 0.00 0.23 0.23 58 1012.3
20260506202736 13 103 0.0 4.8 0.00 0.23 0.23 57 1012.2
20260506202233 13 154 3.2 11.3 0.00 0.23 0.23 56 1012.4
20260506201730 13 57 6.4 11.3 0.00 0.23 0.23 55 1012.4
20260506201227 14 142 4.8 8.0 0.00 0.23 0.23 55 1012.3
20260506200724 13 74 0.0 4.8 0.00 0.23 0.23 57 1012.3
20260506200220 13 57 3.2 4.8 0.00 0.23 0.23 56 1012.2
20260506195716 13 66 4.8 4.8 0.00 0.23 0.23 58 1012.2
20260506195213 14 90 0.0 4.8 0.00 0.23 0.23 56 1012.4
20260506194705 14 139 3.2 6.4 0.00 0.23 0.23 60 1012.4
20260506194201 13 53 8.0 11.3 0.00 0.23 0.23 54 1012.1
20260506193659 13 22 4.8 8.0 0.00 0.23 0.23 54 1012.2
20260506193155 13 105 4.8 8.0 0.00 0.23 0.23 56 1012.3
20260506192652 14 121 3.2 4.8 0.00 0.23 0.23 53 1012.0
20260506192148 15 50 8.0 9.7 0.00 0.23 0.23 54 1012.3
20260506191646 15 106 3.2 8.0 0.00 0.23 0.23 56 1012.4
20260506191142 14 286 0.0 3.2 0.00 0.23 0.23 60 1012.6
20260506190639 13 109 0.0 11.3 0.00 0.23 0.23 57 1012.5
20260506190135 14 187 0.0 4.8 0.00 0.23 0.23 59 1012.5
20260506185633 14 114 0.0 4.8 0.00 0.23 0.23 61 1012.3
20260506185129 13 138 0.0 4.8 0.00 0.23 0.23 55 1012.6
20260506184626 13 103 0.0 4.8 0.00 0.23 0.23 53 1012.7
20260506184124 13 35 8.0 11.3 0.00 0.23 0.23 54 1012.2
20260506183620 13 162 0.0 4.8 0.00 0.23 0.23 55 1012.5
20260506183116 13 56 3.2 12.9 0.00 0.23 0.23 55 1012.5
20260506182614 13 144 4.8 6.4 0.00 0.23 0.23 57 1012.5
20260506182111 12 77 6.4 12.9 0.00 0.23 0.23 56 1012.7
20260506181609 12 55 4.8 8.0 0.00 0.23 0.23 56 1012.4
20260506181105 13 85 3.2 4.8 0.00 0.23 0.23 62 1012.6
20260506180602 12 71 4.8 11.3 0.00 0.23 0.23 59 1012.5
20260506180059 13 77 1.6 8.0 0.00 0.23 0.23 60 1012.5
20260506175555 13 143 3.2 4.8 0.00 0.23 0.23 58 1012.4
20260506175051 13 61 0.0 6.4 0.00 0.23 0.23 64 1012.4
20260506174550 13 139 0.0 6.4 0.00 0.23 0.23 57 1012.5
20260506174046 13 90 0.0 11.3 0.00 0.23 0.23 60 1012.6
20260506173544 13 74 3.2 9.7 0.00 0.23 0.23 61 1012.4
20260506173040 12 142 4.8 8.0 0.00 0.23 0.23 64 1012.4
20260506172538 13 15 3.2 6.4 0.00 0.23 0.23 61 1012.4
20260506172034 12 28 3.2 8.0 0.00 0.23 0.23 61 1012.3
20260506171531 12 22 0.0 6.4 0.00 0.23 0.23 66 1012.8
20260506171029 13 16 0.0 3.2 0.00 0.23 0.23 69 1012.8
20260506170526 12 57 0.0 6.4 0.00 0.23 0.23 65 1012.4
20260506170018 13 102 1.6 6.4 0.00 0.23 0.23 66 1012.5
20260506165516 12 43 6.4 12.9 0.00 0.23 0.23 66 1012.4
20260506165012 12 111 0.0 3.2 0.00 0.23 0.23 71 1012.3
20260506164509 11 47 4.8 8.0 0.00 0.23 0.23 72 1012.3
20260506164006 12 77 0.0 1.6 0.00 0.23 0.23 74 1012.5
20260506163502 11 127 0.0 4.8 0.00 0.23 0.23 76 1012.6
20260506162956 12 65 0.0 3.2 0.00 0.23 0.23 75 1012.5
20260506162455 11 141 0.0 4.8 0.00 0.23 0.23 75 1012.5
20260506161951 11 120 1.6 4.8 0.00 0.23 0.23 78 1012.6
20260506161449 11 29 0.0 3.2 0.00 0.23 0.23 78 1012.5
20260506160946 11 75 1.6 6.4 0.00 0.23 0.23 78 1012.4
20260506160444 11 40 0.0 4.8 0.00 0.23 0.23 77 1012.5
20260506155941 11 20 0.0 8.0 0.00 0.23 0.23 81 1012.4
20260506155439 11 0 0.0 0.0 0.00 0.23 0.23 81 1012.4
20260506153611 10 71 0.0 6.4 0.00 0.23 0.23 84 1012.2
20260506153108 10 151 0.0 3.2 0.00 0.23 0.23 84 1012.0
20260506152605 10 20 1.6 3.2 0.00 0.23 0.23 85 1011.9
20260506152103 10 81 0.0 3.2 0.00 0.23 0.23 88 1011.9
20260506151601 10 15 0.0 3.2 0.00 0.23 0.23 89 1011.8
20260506151058 9 67 3.2 4.8 0.00 0.23 0.23 88 1011.5
20260506150554 9 26 1.6 6.4 0.00 0.23 0.23 89 1011.6
20260506150051 9 0 0.0 4.8 0.00 0.23 0.23 90 1011.7
20260506145548 8 77 0.0 0.0 0.00 0.23 0.23 91 1011.7
20260506145045 8 59 3.2 3.2 0.00 0.23 0.23 92 1011.7
20260506144542 8 50 4.8 6.4 0.00 0.23 0.23 92 1011.5
20260506144039 8 120 0.0 3.2 0.00 0.23 0.23 94 1011.6
20260506143537 8 36 3.2 4.8 0.00 0.23 0.23 94 1011.7
20260506143035 8 21 6.4 6.4 0.00 0.23 0.23 94 1011.4
20260506142532 8 157 0.0 8.0 0.00 0.23 0.23 96 1011.3
20260506142031 8 90 0.0 3.2 0.00 0.23 0.23 97 1011.1
20260506141528 8 98 0.0 1.6 0.00 0.23 0.23 98 1011.3
20260506141026 8 58 4.8 4.8 0.00 0.23 0.23 98 1011.4
20260506140523 8 99 0.0 8.0 0.00 0.23 0.23 98 1011.0
20260506140021 8 61 3.2 3.2 0.00 0.23 0.23 99 1010.8
20260506135517 8 73 0.0 0.0 0.00 0.23 0.23 99 1010.6
20260506135014 8 20 0.0 4.8 0.00 0.23 0.23 99 1010.9
20260506134510 8 90 0.0 3.2 0.00 0.23 0.23 99 1010.6
20260506134006 8 90 0.0 4.8 0.00 0.23 0.23 99 1010.8
20260506133504 7 106 0.0 6.4 0.00 0.23 0.23 99 1010.5
20260506133000 8 337 0.0 4.8 0.00 0.23 0.23 99 1010.5
20260506132457 8 75 1.6 3.2 0.00 0.23 0.23 99 1010.4
20260506131955 8 84 3.2 3.2 0.00 0.23 0.23 99 1010.5
20260506131451 8 71 3.2 4.8 0.00 0.23 0.23 99 1010.2
20260506130948 8 0 1.6 1.6 0.00 0.23 0.23 99 1010.4
20260506130445 8 23 0.0 0.0 0.00 0.23 0.23 99 1010.3
20260506125942 7 23 0.0 1.6 0.05 0.23 0.23 99 1010.3
20260506125441 7 90 3.2 3.2 0.05 0.23 0.23 99 1010.5
20260506124938 7 45 4.8 6.4 0.00 0.20 0.20 99 1010.2
20260506124436 7 74 0.0 3.2 0.00 0.20 0.20 99 1009.9
20260506123934 7 24 3.2 3.2 0.00 0.20 0.20 99 1009.6
20260506123431 7 0 1.6 3.2 0.00 0.20 0.20 99 1009.8
20260506122928 7 69 1.6 1.6 0.00 0.20 0.20 99 1010.1
20260506122425 7 26 1.6 6.4 0.00 0.20 0.20 99 1010.2
20260506121924 7 75 0.0 3.2 0.00 0.20 0.20 99 1010.3
20260506121420 7 111 0.0 3.2 0.00 0.20 0.20 99 1010.2
20260506120917 7 49 1.6 6.4 0.00 0.20 0.20 99 1010.2
20260506120415 7 53 3.2 3.2 0.00 0.20 0.20 99 1009.6
20260506115912 7 34 3.2 4.8 0.00 0.20 0.20 99 1010.1
20260506115410 7 28 4.8 4.8 0.00 0.20 0.20 99 1009.3
20260506114908 7 36 3.2 3.2 0.00 0.20 0.20 99 1009.1
20260506114405 7 36 3.2 8.0 0.00 0.20 0.20 99 1009.1
20260506113904 7 32 4.8 6.4 0.00 0.20 0.20 99 1009.4
20260506113401 7 337 0.0 1.6 0.00 0.20 0.20 99 1009.5
20260506112857 7 74 0.0 4.8 0.05 0.20 0.20 99 1009.1
20260506112355 7 45 0.0 4.8 0.05 0.20 0.20 99 1009.3
20260506111852 7 32 3.2 3.2 0.00 0.20 0.20 99 1009.0
20260506111350 7 15 0.0 3.2 0.00 0.20 0.20 99 1009.5
20260506110847 7 74 0.0 1.6 0.00 0.20 0.20 99 1009.5
20260506110344 7 0 0.0 4.8 0.00 0.20 0.20 99 1009.3
20260506105841 7 82 0.0 4.8 0.00 0.20 0.20 99 1009.0
20260506105338 7 90 0.0 3.2 0.00 0.20 0.20 99 1009.0
20260506104835 7 28 3.2 4.8 0.00 0.20 0.20 99 1008.9
20260506104333 7 48 3.2 3.2 0.00 0.20 0.20 99 1008.7
20260506103830 7 54 0.0 3.2 0.00 0.20 0.20 99 1008.1
20260506103328 7 0 0.0 3.2 0.00 0.20 0.20 99 1007.9
20260506102825 7 56 3.2 4.8 0.00 0.20 0.20 99 1007.8
20260506102323 7 300 0.0 6.4 0.00 0.20 0.20 99 1007.5
20260506101820 7 41 6.4 6.4 0.00 0.20 0.20 99 1007.4
20260506101315 7 5 3.2 4.8 0.00 0.20 0.20 99 1008.0
20260506100814 7 29 4.8 4.8 0.05 0.20 0.20 99 1007.9
20260506100312 7 9 3.2 4.8 0.05 0.20 0.20 99 1008.2
20260506095810 7 26 3.2 4.8 0.00 0.18 0.18 99 1008.3
20260506095306 7 77 3.2 3.2 0.00 0.18 0.18 99 1007.8
20260506094803 7 84 1.6 4.8 0.00 0.18 0.18 99 1007.7
20260506094302 7 70 3.2 4.8 0.00 0.18 0.18 99 1007.6
20260506093800 7 24 0.0 3.2 0.00 0.18 0.18 99 1007.7
20260506093256 7 15 0.0 4.8 0.00 0.18 0.18 99 1008.4
20260506092755 7 60 1.6 8.0 0.00 0.18 0.18 99 1008.7
20260506092252 7 63 0.0 6.4 0.00 0.18 0.18 99 1008.8
20260506091749 7 59 4.8 4.8 0.00 0.18 0.18 99 1008.3
20260506091247 7 5 1.6 6.4 0.00 0.18 0.18 99 1008.2
20260506090744 7 286 0.0 4.8 0.00 0.18 0.18 99 1008.3
20260506090241 7 70 4.8 4.8 0.00 0.18 0.18 99 1008.1
20260506085738 7 331 0.0 3.2 0.00 0.18 0.18 99 1008.4
20260506085234 7 18 1.6 4.8 0.00 0.18 0.18 99 1008.4
20260506084731 7 325 1.6 6.4 0.00 0.18 0.18 99 1008.3
20260506084227 7 25 9.7 11.3 0.00 0.18 0.18 99 1008.3
20260506083724 8 80 3.2 11.3 0.05 0.18 0.18 99 1008.2
20260506083222 8 121 4.8 6.4 0.05 0.18 0.18 99 1008.0
20260506082719 8 115 3.2 6.4 0.00 0.18 0.18 99 1007.6
20260506082215 8 74 0.0 1.6 0.00 0.18 0.18 99 1007.4
20260506081713 8 56 3.2 4.8 0.00 0.18 0.18 99 1007.5
20260506081210 8 24 3.2 4.8 0.05 0.18 0.18 99 1007.0
20260506080708 9 97 1.6 8.0 0.00 0.18 0.18 99 1007.4
20260506080204 9 20 0.0 4.8 0.00 0.18 0.18 99 1007.5
20260506073148 9 57 0.0 3.2 0.00 0.18 0.18 99 1007.4
20260506072644 9 97 1.6 4.8 0.05 0.18 0.18 99 1007.4
20260506072143 10 32 1.6 6.4 0.13 0.18 0.18 99 1007.0
20260506071640 10 132 3.2 4.8 0.05 0.15 0.15 99 1007.1
20260506071137 10 106 1.6 3.2 0.05 0.15 0.15 99 1007.3
20260506070634 10 111 1.6 3.2 0.13 0.15 0.15 99 1007.0
20260506070131 10 109 4.8 4.8 0.13 0.15 0.15 99 1006.9
20260506062109 11 84 1.6 3.2 0.05 0.10 0.10 99 1007.5
20260506061604 11 82 0.0 0.0 0.05 0.08 0.08 99 1007.3
20260506061102 11 114 3.2 4.8 0.05 0.08 0.08 99 1007.4
20260506060601 11 63 3.2 4.8 0.00 0.08 0.08 99 1007.8
20260506051029 14 71 0.0 0.0 0.00 0.05 0.05 99 1008.2
20260506050527 14 254 0.0 0.0 0.00 0.05 0.05 99 1008.3
20260506045017 14 300 0.0 1.6 0.05 0.05 0.05 99 1008.3
20260506044516 14 111 0.0 0.0 0.13 0.05 0.05 99 1008.3
20260506044012 14 111 0.0 0.0 0.00 0.05 0.05 99 1008.5
20260506043509 14 111 0.0 3.2 0.05 0.05 0.05 99 1008.7
20260506043007 14 8 0.0 3.2 0.13 0.05 0.05 99 1008.6
20260506042506 14 81 0.0 0.0 0.13 0.03 0.03 99 1008.6
20260506042004 14 81 0.0 0.0 0.05 0.03 0.03 99 1008.9
20260506041502 14 74 0.0 0.0 0.00 0.00 0.00 99 1008.8
20260506040959 14 74 0.0 0.0 0.05 0.00 0.00 99 1008.8
20260506040456 14 74 0.0 0.0 0.05 0.00 0.00 99 1008.9
20260506035952 14 74 0.0 0.0 0.05 0.15 0.15 99 1008.9
20260506035449 14 74 0.0 0.0 0.05 0.15 0.15 99 1008.9
20260506034946 14 74 0.0 0.0 0.00 0.15 0.15 99 1008.9
20260506034443 14 74 0.0 0.0 0.00 0.15 0.15 99 1008.8
20260506033940 14 74 0.0 0.0 0.00 0.15 0.15 99 1008.9
20260506033438 14 74 0.0 0.0 0.05 0.15 0.15 99 1009.0
20260506032934 14 74 0.0 0.0 0.13 0.15 0.15 99 1009.0
20260506032431 14 74 0.0 0.0 0.05 0.13 0.13 99 1009.1
20260506031928 14 74 0.0 0.0 0.05 0.13 0.13 99 1008.8
20260506031425 14 74 0.0 0.0 0.05 0.13 0.13 99 1008.7
20260506030923 14 74 0.0 1.6 0.00 0.10 0.10 99 1008.8
20260506030421 14 74 0.0 0.0 0.00 0.10 0.10 99 1009.1
20260506025917 14 74 0.0 0.0 0.05 0.10 0.10 99 1009.2
20260506025415 14 81 0.0 0.0 0.05 0.10 0.10 99 1009.2
20260506024911 14 69 0.0 0.0 0.00 0.10 0.10 99 1009.0
20260506024408 14 81 0.0 1.6 0.05 0.10 0.10 99 1009.3
20260506023904 14 90 0.0 0.0 0.00 0.10 0.10 99 1009.2
20260506023401 14 90 0.0 0.0 0.05 0.10 0.10 99 1009.3
20260506022857 14 99 0.0 0.0 0.05 0.10 0.10 99 1009.0
20260506022355 14 99 0.0 0.0 0.00 0.08 0.08 99 1009.2
20260506021853 14 66 1.6 3.2 0.00 0.08 0.08 99 1009.5
20260506021350 14 90 1.6 1.6 0.00 0.08 0.08 99 1009.3
20260506020846 14 99 0.0 1.6 0.05 0.08 0.08 99 1009.3
20260506020345 14 73 3.2 3.2 0.05 0.08 0.08 99 1009.1
20260506015842 14 90 0.0 1.6 0.00 0.08 0.08 99 1009.3
20260506015339 14 74 0.0 1.6 0.00 0.08 0.08 99 1009.2
20260506014836 14 75 1.6 1.6 0.00 0.08 0.08 99 1009.0
20260506014333 14 74 1.6 3.2 0.00 0.08 0.08 99 1009.2
20260506013829 14 69 1.6 3.2 0.00 0.08 0.08 99 1008.9
20260506013327 14 71 1.6 1.6 0.00 0.08 0.08 99 1009.0
20260506012823 14 99 0.0 3.2 0.00 0.08 0.08 99 1008.9
20260506012320 14 75 1.6 1.6 0.00 0.08 0.08 99 1008.6
20260506011818 14 90 0.0 0.0 0.00 0.08 0.08 99 1008.8
20260506011314 14 81 0.0 1.6 0.00 0.08 0.08 99 1008.8
20260506010811 14 74 0.0 1.6 0.00 0.08 0.08 99 1008.7
20260506010309 14 90 0.0 0.0 0.00 0.08 0.08 99 1008.9
20260506005806 14 90 0.0 1.6 0.00 0.08 0.08 99 1008.9
20260506005305 14 83 1.6 3.2 0.00 0.08 0.08 99 1008.8
20260506004759 14 74 0.0 1.6 0.00 0.08 0.08 99 1008.9
20260506004257 14 81 0.0 0.0 0.00 0.08 0.08 99 1009.1
20260506003752 14 90 0.0 1.6 0.00 0.08 0.08 98 1009.1
20260506003249 14 90 0.0 1.6 0.00 0.08 0.08 98 1009.1
20260506002745 14 69 1.6 3.2 0.00 0.08 0.08 98 1009.0
20260506002241 14 90 0.0 1.6 0.00 0.08 0.08 98 1009.1
20260506001737 14 114 0.0 3.2 0.00 0.08 0.08 98 1009.2
20260506001235 14 55 3.2 4.8 0.05 0.08 0.08 98 1008.9
20260506000732 14 139 0.0 4.8 0.13 0.08 0.08 97 1009.1
20260506000229 14 59 3.2 6.4 0.05 0.05 0.05 97 1009.2
20260505235726 14 81 4.8 6.4 0.05 0.05 0.05 97 1008.8
20260505235224 14 19 3.2 9.7 0.05 0.05 0.05 97 1008.9
20260505234721 15 53 4.8 9.7 0.05 0.05 0.05 97 1009.0
20260505234218 15 94 4.8 9.7 0.00 0.03 0.03 96 1009.1
20260505233714 15 60 4.8 4.8 0.05 0.03 0.03 96 1008.8
20260505233212 15 72 8.0 8.0 0.05 0.03 0.03 95 1009.0